Retour au catalogue

SL-12 DEB

LostHEO
NORAD 44558·DEBRIS·🇷🇺 Russia

Lancé Sep 2, 2010 depuis Baikonur Cosmodrome

Loading…

Prochains Passages (prochaines 24 heures)

TLE

PériméSource: Space-Track

Époque: Oct 10, 2019, 01:56 UTC

1 44558U 10041AD  19283.08084262  .00026072  00000-0  40063-1 0  9996
2 44558  65.5510 274.0780 5755281  34.3529 352.1202  4.25285003  1529

Suivez SL-12 DEB en temps réel avec AllMySat

Download on the App Store